Wind_Speed
2 0 0 0 1 2 2 2 4 5 5 6 6 6 8 9 10 9 10 10 10 8 7 9 9 10 9 8 7 6 5 5 5 7 6 5 6 6 7 10 12 13 16 19 20 22 24 21 19
6 5 4 3 3 3 3 3 4 4 7 8 8 9 10 10 11 12 12 11 11 10 10 10 10 11 11 11 11 9 8 7 7 7 6 5 5 7 7 7 8 11 13 16 18 19 21 23 21
11 10 9 8 8 7 8 8 7 6 7 10 11 12 12 13 13 13 13 13 13 12 12 12 11 12 13 13 14 13 12 10 10 9 8 7 6 5 7 7 6 8 10 12 16 18 18 20 20
15 14 13 12 12 12 12 11 11 11 10 11 12 12 13 14 14 14 14 14 14 14 14 14 13 13 12 13 15 16 15 15 13 12 10 9 8 6 6 8 7 7 8 10 13 16 16 18 19
18 18 17 16 16 15 15 14 13 13 13 14 15 15 16 16 16 16 15 15 15 15 14 15 15 15 15 13 13 15 16 17 15 14 14 12 11 9 9 7 9 8 8 9 10 11 15 15 17
22 21 21 21 20 19 18 17 16 16 16 17 18 19 20 18 18 18 18 18 18 18 17 17 17 17 17 16 16 15 14 14 15 17 17 16 15 13 12 11 10 9 10 9 9 9 11 12 13
23 23 22 22 21 20 19 19 19 20 20 19 20 20 20 20 21 21 21 21 22 21 21 20 20 19 19 18 19 20 19 17 16 17 19 19 18 17 16 14 13 12 11 10 10 10 10 9 11
22 23 23 22 22 21 21 20 20 19 19 21 21 20 21 21 21 22 23 24 24 24 23 22 22 22 22 21 21 22 22 23 23 21 20 21 21 21 20 18 17 15 14 13 12 11 10 10 10
20 21 22 22 22 21 20 20 20 20 19 20 21 23 24 24 24 24 24 24 24 25 25 25 25 25 25 24 24 25 26 25 24 24 25 24 22 22 22 22 20 18 18 17 15 13 12 12 11
19 21 21 22 22 21 21 22 21 21 21 21 21 22 23 23 23 24 24 24 25 24 25 26 26 27 28 27 28 28 28 27 26 26 25 26 26 24 23 24 23 22 21 20 19 17 15 14 15
19 19 20 21 21 22 23 23 23 22 22 23 22 22 23 23 24 24 24 24 25 26 27 27 29 29 30 30 30 30 30 29 28 28 27 26 26 27 25 24 24 24 23 23 22 21 19 17 17
15 17 18 19 20 21 21 22 22 22 22 21 21 22 21 21 20 21 22 22 24 26 27 29 30 31 32 32 32 32 31 31 31 30 29 28 27 27 27 26 25 25 25 25 25 24 23 21 19
9 10 12 13 14 15 15 15 15 15 14 13 13 13 13 14 14 15 16 18 21 23 24 25 26 27 29 30 31 32 33 32 32 32 31 30 29 29 28 27 27 27 27 27 27 26 25 24 21
5 5 6 7 7 7 7 8 10 10 10 11 12 13 14 15 16 17 17 18 19 20 21 23 24 26 28 29 31 31 32 32 33 32 32 32 31 30 30 29 29 28 28 28 27 27 26 24 24
6 6 6 7 7 8 8 9 11 12 12 13 14 15 17 18 19 19 19 19 19 19 21 22 24 25 27 29 31 31 31 32 32 33 33 33 33 32 32 31 30 29 29 29 29 29 28 27 26
9 9 10 10 12 12 12 13 14 15 15 15 16 17 18 19 20 20 19 17 17 19 21 23 25 26 27 28 30 31 32 32 32 32 33 34 35 34 33 33 32 31 31 31 31 31 31 31 30
11 12 13 13 14 15 16 16 15 17 18 18 18 19 19 19 18 16 16 17 18 19 21 23 25 26 27 29 31 32 32 33 33 33 32 32 33 34 36 36 35 35 34 33 33 33 34 33 32
12 13 14 16 15 17 17 19 18 19 19 19 20 19 18 18 18 18 18 18 18 20 22 23 24 25 28 30 32 33 34 33 33 33 33 33 33 33 33 34 34 34 34 34 34 34 35 35 34
13 14 15 17 17 18 19 21 22 22 22 20 20 20 20 20 20 21 21 22 23 24 23 24 26 27 28 29 31 32 34 35 35 35 35 34 34 35 35 34 34 33 33 33 34 34 35 36 36
16 17 18 19 20 21 21 21 22 23 24 23 22 22 22 23 24 24 25 26 26 26 26 26 27 29 30 30 30 31 32 33 35 35 36 37 36 35 35 36 36 35 35 35 35 36 37 37 38
21 22 23 25 26 26 26 24 23 24 25 24 24 25 25 26 26 27 27 27 28 28 28 29 29 30 32 32 32 31 31 32 33 33 33 35 36 36 36 36 37 37 38 38 39 39 39 39 40
27 28 29 30 31 32 30 32 26 26 26 25 25 25 26 28 27 28 28 29 29 30 30 31 31 32 32 33 33 32 32 33 33 32 32 33 34 35 36 37 38 39 39 40 41 42 42 43 43
32 32 33 34 35 37 33 37 32 28 27 26 27 28 28 29 30 29 30 31 31 32 33 33 33 33 34 34 34 35 34 33 34 35 36 38 39 39 39 39 39 39 39 40 40 41 41 42 43
34 35 37 38 38 41 35 38 36 31 28 27 28 29 31 30 30 31 33 35 36 35 35 37 36 36 36 36 36 36 37 37 37 37 38 39 39 39 39 39 40 40 41 42 43 44 45 45 45
35 35 38 41 41 42 38 41 35 32 30 30 31 32 32 32 33 36 38 39 39 39 38 36 37 36 36 36 36 36 36 37 38 39 39 40 40 40 40 41 42 43 43 44 45 46 46 47 48
34 34 36 42 42 43 43 44 39 36 35 34 34 35 35 37 39 40 42 43 42 41 41 38 37 37 38 37 37 38 39 40 40 41 42 44 44 44 45 46 46 46 47 48 48 49 50 51 52
35 35 36 41 44 46 47 45 44 43 40 40 40 42 42 42 44 44 45 47 46 45 46 45 40 38 38 39 39 40 41 42 43 45 46 47 48 50 51 52 52 53 53 54 55 56 58 59 59
38 40 41 42 48 52 53 53 52 53 50 47 45 46 46 45 46 47 50 52 51 52 51 50 45 41 40 41 42 43 44 47 49 51 52 52 53 55 58 59 59 60 61 62 62 63 64 65 66
42 43 44 46 49 53 56 58 56 55 54 52 49 47 49 51 52 53 54 56 57 55 53 52 50 48 47 46 48 51 53 54 55 56 55 56 57 59 60 62 64 65 66 67 68 69 70 71 71
45 46 46 48 51 56 60 62 59 57 54 56 56 55 54 56 56 57 57 57 56 54 56 55 52 54 53 53 55 57 57 59 59 59 58 60 61 62 63 64 65 66 67 68 70 71 73 74 75
Wind_Direction
246 280 95 2 181 202 256 262 272 239 216 208 217 233 240 246 252 254 256 254 251 245 239 237 237 236 232 229 225 235 249 279 310 323 324 344 352 355 350 354 10 14 28 34 32 32 29 23 23
237 250 262 262 261 279 274 265 255 237 216 215 227 236 245 253 256 259 261 261 259 254 251 248 245 245 243 239 235 242 252 268 287 304 309 309 324 341 339 340 350 359 10 22 24 25 28 26 23
245 244 246 253 266 265 266 263 260 251 239 234 233 235 245 252 257 262 264 264 261 256 254 255 253 252 248 246 244 248 257 271 275 278 285 279 300 335 342 352 333 346 354 5 12 13 18 21 24
249 250 253 251 255 264 265 265 260 256 252 244 245 247 249 253 256 259 261 261 260 261 260 259 257 255 255 253 252 255 259 267 272 264 266 267 275 292 334 346 345 325 330 343 356 1 9 12 14
250 251 255 254 255 259 261 259 262 263 261 256 255 254 253 255 257 259 259 263 264 264 263 262 261 259 258 261 265 262 262 264 265 266 261 259 264 273 285 310 331 338 316 315 331 348 3 4 5
252 252 254 256 257 257 256 257 257 263 264 262 259 256 255 257 260 262 264 265 266 266 264 261 260 260 260 260 264 267 267 268 266 264 259 260 263 267 274 279 295 317 327 314 315 322 332 355 359
251 251 252 253 254 254 253 256 262 267 265 259 259 260 261 260 259 260 261 261 262 264 265 265 264 264 264 265 265 265 264 265 266 266 262 262 262 264 265 272 278 287 297 314 312 307 313 336 346
252 250 249 249 252 251 253 257 261 264 263 259 260 262 263 265 265 262 261 261 262 265 267 268 268 266 266 267 268 268 266 264 263 263 264 264 262 263 266 266 271 277 279 288 302 304 301 301 318
255 250 247 247 250 251 253 254 259 262 264 263 264 264 266 266 264 263 263 264 265 267 269 270 270 270 269 268 266 266 267 267 265 263 262 262 263 261 264 267 269 270 272 276 284 291 291 289 291
260 254 250 247 249 251 252 255 260 261 265 265 263 262 261 261 262 264 264 265 266 269 271 270 270 270 269 268 268 268 267 267 266 265 263 261 261 261 262 265 267 268 268 270 274 279 283 283 284
261 258 255 254 253 255 256 259 262 262 263 263 262 262 262 262 261 261 262 264 266 266 265 267 267 267 267 267 267 267 268 267 266 266 265 262 261 260 260 261 264 265 266 267 270 275 278 278 276
265 260 257 258 258 260 260 261 261 260 261 263 265 264 264 265 267 268 269 268 266 265 264 263 265 266 268 267 267 268 268 267 266 265 264 263 262 260 260 260 261 262 263 266 270 272 273 271 270
275 268 264 261 259 257 257 255 252 251 249 252 253 257 262 266 270 272 273 271 271 273 275 273 271 270 269 268 267 266 265 264 264 265 264 262 262 261 260 259 260 260 261 263 267 269 268 269 266
286 267 258 253 251 244 243 247 247 248 245 253 258 263 268 271 272 273 274 276 277 278 276 275 273 271 270 268 267 266 265 264 263 262 262 262 261 261 261 259 258 259 260 262 264 265 265 263 265
289 286 282 272 270 266 257 262 268 263 264 266 266 269 270 272 273 275 275 278 280 281 279 278 274 272 271 270 268 267 266 265 263 262 261 260 260 260 261 261 260 259 260 260 261 262 262 262 263
287 283 284 284 285 284 281 279 281 281 280 279 277 275 274 274 274 273 274 277 279 280 282 280 278 276 274 272 270 266 265 264 264 263 262 262 261 261 262 261 261 260 259 259 259 259 259 260 262
292 290 285 283 283 284 286 287 287 288 288 286 283 280 277 273 270 266 270 276 280 284 285 284 282 279 276 273 270 267 264 263 263 264 264 264 264 263 262 263 263 264 263 261 259 258 258 259 259
288 285 288 288 285 286 289 291 290 289 289 290 287 284 275 266 263 268 273 280 285 291 292 290 287 282 276 272 270 268 266 265 265 267 266 266 266 265 264 263 262 261 261 261 259 258 257 257 258
288 289 287 287 287 287 289 289 293 293 291 289 286 280 274 272 271 274 278 282 287 289 290 291 288 285 281 278 272 270 269 268 266 266 266 265 264 264 264 264 263 262 261 260 260 259 259 258 257
289 291 291 291 290 290 289 288 292 289 288 287 284 280 278 278 278 278 280 283 285 286 287 289 287 282 280 278 277 270 266 265 266 266 266 267 265 264 264 264 264 264 263 263 262 261 260 260 260
286 291 292 291 289 291 291 289 294 293 290 286 280 280 279 280 281 282 283 284 284 285 286 288 289 284 280 277 276 274 268 265 265 264 263 263 264 264 264 265 264 263 263 262 262 261 261 261 261
284 287 289 290 289 290 288 290 290 290 292 286 284 282 282 281 281 282 282 283 285 287 288 289 289 286 280 277 272 272 274 271 268 266 265 265 264 264 263 262 261 260 260 259 260 260 261 261 261
286 284 287 289 288 288 289 289 291 291 291 285 283 282 283 284 285 286 286 286 287 289 289 288 287 285 280 275 272 268 267 267 269 269 268 267 266 265 265 266 266 267 267 267 266 266 265 264 264
285 286 288 287 287 284 291 286 288 291 289 284 284 284 287 287 286 286 287 289 290 289 290 290 288 286 278 272 269 267 268 268 269 271 272 271 270 269 269 269 269 270 269 269 268 266 265 265 265
285 286 288 286 287 288 288 284 289 293 290 288 287 289 287 285 286 287 289 290 291 292 292 291 288 284 277 272 269 268 267 269 270 271 272 272 272 271 271 271 271 271 271 270 268 268 267 266 264
285 286 285 287 288 290 288 289 294 291 290 289 288 287 286 287 286 287 288 289 291 291 291 291 290 284 278 270 267 266 267 269 269 271 272 271 270 270 271 272 272 272 272 272 271 270 270 269 268
285 284 284 284 285 286 286 288 288 288 287 287 288 289 290 288 288 286 286 289 290 289 290 289 286 282 275 269 268 269 269 268 269 272 273 272 270 270 270 270 271 271 271 271 271 270 269 269 269
280 280 282 282 284 284 286 288 290 290 290 290 290 289 288 286 285 285 285 286 287 288 289 288 284 277 272 268 267 267 269 270 270 270 271 270 272 273 273 272 271 271 272 272 272 271 270 269 268
278 278 278 278 279 283 285 285 289 291 292 291 288 286 284 282 282 282 282 283 285 286 286 285 282 280 276 272 270 271 273 274 272 270 270 271 272 271 271 272 272 273 272 272 272 272 272 271 270
281 279 278 278 281 280 280 282 283 284 284 284 285 285 283 283 282 281 280 280 282 285 284 281 281 281 277 276 275 276 276 274 273 274 273 273 275 274 273 273 273 272 272 272 273 273 273 272 271
Height
5830 5831 5830 5830 5832 5830 5829 5829 5828 5828 5828 5828 5829 5829 5830 5831 5831 5833 5831 5831 5831 5831 5830 5830 5830 5830 5831 5831 5831 5830 5830 5830 5829 5828 5827 5827 5826 5826 5825 5824 5823 5821 5820 5818 5816 5813 5810 5808 5806
5829 5830 5830 5829 5830 5828 5829 5828 5828 5827 5827 5827 5828 5828 5828 5829 5829 5829 5829 5829 5829 5829 5829 5829 5829 5829 5829 5830 5830 5829 5829 5828 5828 5827 5827 5826 5826 5825 5824 5823 5822 5821 5819 5818 5816 5814 5812 5810 5807
5827 5828 5829 5828 5827 5827 5827 5826 5826 5826 5825 5826 5826 5826 5826 5827 5827 5827 5827 5827 5827 5827 5827 5827 5827 5827 5827 5827 5827 5827 5827 5827 5826 5826 5826 5825 5825 5824 5823 5822 5821 5820 5819 5818 5816 5815 5813 5811 5809
5825 5826 5826 5826 5825 5824 5824 5824 5824 5824 5824 5824 5824 5824 5824 5824 5824 5825 5825 5825 5825 5825 5825 5825 5825 5825 5824 5824 5824 5825 5825 5825 5824 5824 5824 5824 5823 5823 5822 5821 5820 5819 5819 5818 5816 5815 5813 5811 5809
5821 5822 5822 5822 5821 5821 5821 5821 5821 5821 5821 5822 5821 5822 5822 5822 5822 5822 5822 5822 5822 5822 5823 5822 5822 5822 5822 5822 5822 5822 5822 5822 5822 5822 5822 5822 5821 5821 5821 5820 5819 5818 5818 5817 5816 5814 5813 5811 5810
5817 5817 5818 5818 5817 5818 5818 5818 5818 5818 5818 5818 5818 5818 5819 5819 5819 5819 5819 5819 5819 5819 5819 5819 5819 5819 5819 5819 5819 5819 5819 5819 5819 5819 5819 5819 5819 5819 5819 5818 5818 5817 5816 5815 5815 5814 5813 5812 5810
5812 5813 5814 5814 5813 5813 5814 5814 5814 5814 5814 5814 5814 5814 5815 5815 5815 5815 5815 5815 5815 5815 5816 5816 5816 5816 5816 5815 5815 5816 5816 5816 5816 5816 5816 5816 5816 5816 5816 5816 5816 5815 5815 5814 5813 5812 5811 5810 5809
5807 5808 5809 5809 5809 5809 5810 5810 5810 5810 5810 5810 5810 5811 5811 5811 5811 5810 5810 5810 5810 5811 5811 5811 5811 5811 5811 5811 5812 5812 5812 5812 5812 5813 5812 5812 5813 5813 5813 5813 5813 5812 5812 5812 5811 5810 5809 5809 5807
5802 5804 5804 5805 5805 5805 5805 5806 5806 5806 5806 5806 5806 5806 5806 5806 5805 5805 5805 5805 5805 5805 5806 5806 5806 5806 5806 5807 5807 5807 5807 5808 5808 5808 5808 5809 5809 5809 5809 5809 5809 5809 5809 5809 5809 5808 5807 5807 5806
5798 5799 5799 5800 5801 5801 5801 5801 5802 5802 5802 5801 5801 5800 5800 5800 5800 5800 5800 5800 5800 5801 5801 5801 5801 5801 5801 5801 5802 5802 5802 5803 5803 5803 5804 5804 5804 5804 5805 5805 5805 5805 5805 5805 5805 5805 5805 5804 5803
5794 5794 5795 5796 5796 5796 5796 5797 5797 5797 5797 5796 5796 5796 5795 5795 5794 5795 5795 5795 5795 5795 5795 5795 5795 5795 5795 5795 5796 5796 5796 5797 5797 5798 5798 5798 5799 5799 5800 5800 5801 5801 5801 5801 5801 5801 5801 5800 5800
5791 5790 5791 5791 5792 5792 5792 5792 5792 5792 5792 5792 5791 5791 5790 5790 5790 5790 5790 5790 5790 5789 5789 5788 5788 5789 5789 5789 5789 5790 5790 5790 5791 5791 5792 5793 5793 5794 5794 5795 5796 5796 5796 5796 5796 5796 5796 5797 5797
5787 5787 5787 5788 5788 5788 5788 5787 5788 5788 5788 5788 5787 5787 5787 5786 5786 5785 5785 5785 5784 5784 5784 5783 5783 5783 5782 5782 5782 5782 5783 5783 5784 5785 5785 5786 5787 5788 5789 5789 5790 5790 5790 5791 5791 5791 5791 5792 5793
5786 5786 5785 5785 5785 5786 5786 5785 5785 5785 5785 5784 5784 5784 5783 5783 5782 5781 5781 5780 5780 5779 5779 5778 5777 5777 5776 5776 5775 5775 5776 5776 5777 5778 5778 5779 5780 5781 5782 5783 5784 5784 5785 5785 5785 5786 5786 5787 5787
5785 5785 5784 5784 5783 5784 5783 5783 5782 5782 5782 5781 5781 5780 5779 5778 5777 5777 5776 5775 5775 5774 5773 5772 5771 5770 5770 5769 5769 5769 5769 5769 5770 5770 5771 5771 5772 5773 5774 5775 5777 5778 5778 5779 5779 5780 5781 5781 5781
5784 5783 5782 5782 5781 5781 5781 5781 5779 5778 5777 5777 5776 5775 5774 5773 5772 5772 5771 5770 5769 5768 5767 5766 5765 5764 5763 5762 5762 5762 5762 5762 5762 5763 5763 5764 5765 5766 5767 5768 5769 5770 5772 5773 5773 5774 5774 5775 5775
5781 5781 5780 5779 5778 5777 5777 5776 5775 5774 5773 5772 5771 5770 5769 5768 5767 5767 5766 5765 5764 5763 5762 5761 5759 5758 5757 5756 5755 5755 5755 5755 5755 5755 5756 5757 5758 5759 5759 5760 5761 5762 5763 5765 5766 5766 5767 5767 5768
5778 5777 5776 5775 5775 5773 5772 5771 5771 5770 5769 5768 5766 5765 5764 5763 5763 5762 5761 5760 5759 5757 5756 5754 5753 5751 5750 5748 5747 5747 5747 5748 5748 5749 5749 5750 5751 5751 5752 5752 5753 5754 5755 5755 5756 5757 5758 5759 5760
5775 5774 5772 5771 5770 5769 5768 5766 5765 5764 5763 5763 5762 5760 5759 5758 5757 5756 5755 5754 5752 5751 5749 5748 5746 5744 5743 5741 5740 5739 5739 5739 5740 5741 5741 5742 5742 5743 5744 5744 5745 5745 5746 5747 5748 5748 5749 5750 5751
5771 5770 5769 5767 5766 5765 5763 5762 5761 5759 5757 5757 5755 5754 5753 5752 5751 5750 5749 5747 5745 5744 5742 5740 5739 5737 5735 5734 5732 5731 5730 5730 5731 5731 5732 5733 5733 5734 5735 5736 5736 5737 5738 5738 5739 5739 5740 5741 5741
5766 5765 5763 5762 5760 5759 5757 5757 5756 5754 5751 5750 5748 5747 5746 5745 5744 5743 5741 5739 5738 5736 5734 5732 5731 5729 5727 5726 5725 5724 5723 5722 5722 5722 5723 5723 5724 5725 5726 5727 5727 5728 5728 5729 5729 5729 5730 5731 5732
5760 5759 5757 5755 5753 5752 5751 5748 5750 5748 5746 5743 5741 5740 5738 5737 5736 5735 5733 5732 5730 5729 5727 5725 5723 5721 5719 5717 5716 5715 5715 5715 5714 5714 5714 5715 5715 5715 5716 5716 5717 5717 5717 5718 5718 5719 5720 5721 5722
5754 5751 5749 5747 5745 5742 5745 5739 5741 5741 5739 5737 5734 5732 5731 5729 5728 5727 5725 5723 5722 5720 5718 5716 5714 5712 5710 5708 5707 5706 5705 5705 5705 5705 5705 5705 5705 5706 5706 5707 5707 5708 5708 5709 5709 5710 5710 5710 5711
5745 5743 5740 5738 5736 5731 5736 5732 5731 5733 5732 5729 5727 5725 5723 5721 5719 5717 5715 5714 5712 5711 5708 5706 5704 5702 5700 5698 5698 5697 5697 5696 5696 5695 5695 5695 5695 5695 5696 5696 5697 5697 5698 5698 5698 5698 5699 5699 5700
5736 5734 5731 5727 5725 5722 5723 5719 5724 5723 5722 5720 5718 5716 5714 5712 5710 5707 5705 5703 5701 5699 5697 5695 5693 5691 5689 5688 5687 5687 5687 5686 5686 5685 5685 5685 5685 5685 5685 5685 5685 5685 5686 5686 5686 5686 5686 5687 5687
5727 5726 5723 5715 5714 5712 5710 5707 5711 5711 5710 5709 5707 5705 5703 5700 5698 5695 5693 5691 5689 5687 5685 5684 5682 5679 5678 5677 5677 5676 5675 5675 5675 5674 5674 5674 5673 5673 5673 5673 5673 5673 5672 5673 5673 5673 5673 5673 5673
5718 5716 5714 5708 5704 5699 5698 5698 5698 5698 5699 5697 5696 5693 5690 5687 5685 5682 5679 5677 5676 5674 5672 5671 5670 5668 5667 5666 5666 5666 5665 5664 5664 5663 5662 5662 5662 5661 5660 5660 5660 5659 5659 5658 5658 5658 5658 5657 5657
5707 5704 5702 5699 5692 5686 5684 5684 5684 5682 5683 5684 5682 5680 5677 5674 5671 5669 5666 5664 5662 5660 5658 5656 5656 5656 5655 5654 5654 5654 5653 5652 5651 5650 5649 5648 5648 5647 5646 5646 5645 5644 5643 5642 5641 5641 5640 5640 5640
5696 5693 5690 5687 5682 5677 5673 5671 5671 5666 5666 5666 5666 5665 5663 5660 5658 5655 5652 5650 5648 5646 5644 5642 5640 5640 5641 5640 5640 5639 5637 5636 5635 5634 5635 5633 5632 5631 5629 5628 5628 5627 5625 5624 5623 5622 5620 5619 5619
5682 5679 5676 5673 5671 5665 5661 5659 5660 5655 5653 5651 5648 5645 5644 5643 5641 5639 5637 5635 5634 5631 5629 5626 5626 5624 5624 5623 5622 5621 5621 5619 5618 5617 5617 5616 5615 5614 5612 5610 5609 5607 5606 5604 5603 5602 5601 5599 5597